Regional Weather Roundup
Issued by NWS Kansas City/Pleasant Hill, MO

Home | Current Version | Previous Version | Text Only | Print | Product List | Glossary On
Versions: 1 2 3 4 5 6 7 8 9 10 11 12 13 14 15 16 17 18 19 20 21 22 23 24 25 26 27 28 29 30 31 32 33 34 35 36 37 38 39 40 41 42 43 44 45 46 47 48 49 50
801
ASUS43 KEAX 231010
RWREAX

WEATHER ROUNDUP FOR EASTERN KANSAS AND NORTHWEST MISSOURI
NATIONAL WEATHER SERVICE KANSAS CITY/PLEASANT HILL MO
500 AM CDT FRI JUN 23 2017

KSZ040-057-103>105-MOZ028-029-037-043-231100-
...KANSAS CITY METROPOLITAN AREA...

CITY           SKY/WX    TMP DP  RH WIND       PRES   REMARKS
K.C. INTL      CLOUDY    75  73  93 N15G23    29.73R
K.C. DOWNTOWN  CLOUDY    79  74  84 N9        29.70R
LEES SUMMIT    MOCLDY    76  74  93 N7        29.72R
OLATHE - IXD   CLOUDY    76  72  87 NW7       29.73R
OLATHE - OJC   CLOUDY    76  73  91 NW7       29.72R
LAWRENCE       CLOUDY    76  74  93 N6        29.71R

$$

MOZ001>008-011>017-020>025-030>033-038>040-044>046-053-054-231100-
...NORTHERN AND CENTRAL MISSOURI...

CITY           SKY/WX    TMP DP  RH WIND       PRES   REMARKS
ST. JOSEPH     CLOUDY    71  67  87 N13G23    29.76S
WARRENSBURG    MOCLDY    72  70  94 CALM      29.69S
WHITEMAN AFB   MOCLDY    73  73 100 CALM      29.69R
CLINTON        CLEAR     73  72  94 MISG      29.69S
SEDALIA        PTCLDY    75  73  93 S5        29.71R
WARSAW         NOT AVBL
CHILLICOTHE      N/A     72  71  97 VRB6      29.73R
KIRKSVILLE     RAIN      68  66  93 W5        29.74R FOG

$$

MOZ041-047>049-056>058-063>065-088>090-097-231100-
...EASTERN AND SOUTHERN MISSOURI...

CITY           SKY/WX    TMP DP  RH WIND       PRES   REMARKS
ST. LOUIS INTL CLOUDY    79  72  79 SW8       29.70F
SPIRIT OF STL  CLOUDY    76  74  93 SW3       29.69S
COLUMBIA       PTCLDY    74  73  97 SW5       29.72R
JEFFERSON CITY CLEAR     76  72  87 CALM      29.70R
ROLLA          PTCLDY    73  71  93 S8        29.69F
OSAGE BEACH    CLEAR     71  70  96 CALM      29.72R
SPRINGFIELD    PTCLDY    72  71  97 CALM      29.70F
BRANSON        CLOUDY    72  72 100 CALM      29.72F FOG
JOPLIN         CLEAR     73  72  96 SW3       29.70F
WEST PLAINS    CLOUDY    74  73  97 NE5       29.71F FOG

$$

IAZ060-094-KSZ022-034>040-054-083-096-NEZ052-066-093-231100-
...KANSAS...SOUTHEAST NEBRASKA AND IOWA...

CITY           SKY/WX    TMP DP  RH WIND       PRES   REMARKS
TOPEKA         CLOUDY    75  70  84 N20G26    29.73R
MANHATTAN      MOCLDY    74  67  78 NE21G28   29.75R
EMPORIA        PTCLDY    73  71  93 S6        29.68S
CHANUTE        CLEAR     73  70  90 S7        29.69S
WICHITA        CLOUDY    76  65  68 NW13      29.76R
OMAHA          MOCLDY    65  55  70 N10       29.81R
LINCOLN        CLOUDY    65  58  78 N10       29.83S
FALLS CITY     MOCLDY    68  63  84 N6        29.79R
LAMONI         CLOUDY    68  66  93 N9        29.78R
DES MOINES     CLOUDY    66  63  90 N9        29.79R

$$





USA.gov is the U.S. government's official web portal to all federal, state and local government web resources and services.